LUDI TANCE-4 01A

Last updated on Mon Oct 14 2024 00:02:42 GMT+0000 (Coordinated Universal Time)

1 57624U 23120A 24287.01993760 -.00000200 00000+0 00000+0 0 9991 2 57624 15.6208 208.9512 0002188 24.3767 245.6824 1.00271209 4404
UTC large
Height (km)
Speed (km/s)
/
Latitude / Longitude
Inclination (degrees)
Orbital Period (minutes)
Azimuth
Elevation
Range (km)
Doppler Factor

Next 0 passes for location: London (51.5072 / 0.1276)

Sorry there are no passes over London.